Wind_Speed
35 34 35 35 34 34 34 34 35 34 34 33 32 31 31 31 30 29 28 28 27 26 25 24 23 23 22 22 22 21 20 19 19 18 18 17 17 17 17 16 16 16 16
38 37 37 37 37 36 36 36 36 36 36 36 34 34 33 33 33 32 31 31 30 28 27 26 26 25 25 24 24 23 23 22 21 20 20 19 19 19 19 18 18 18 17
40 40 40 40 39 39 39 38 38 38 38 38 37 37 36 35 35 35 34 33 32 31 30 29 28 28 27 27 26 25 24 24 23 22 22 21 21 21 21 20 20 20 19
44 43 42 42 42 42 41 41 41 41 41 40 40 40 40 39 38 37 36 35 34 34 33 32 32 31 30 29 28 27 26 26 25 24 24 24 23 23 22 22 22 22 22
46 46 45 44 44 44 44 44 44 44 44 43 43 43 43 42 41 40 39 38 37 36 36 35 34 34 33 32 31 30 29 28 27 27 26 26 25 25 24 24 23 23 23
48 48 48 47 47 47 47 46 46 46 46 46 46 45 45 45 44 43 42 41 40 39 38 38 37 36 35 35 34 32 31 30 30 29 29 28 27 27 26 26 25 25 24
50 50 49 49 49 49 49 49 49 48 48 48 48 48 47 47 46 46 45 44 43 42 41 40 40 39 37 37 36 35 34 33 32 32 31 30 30 29 28 27 27 27 26
52 52 52 50 50 50 50 51 51 51 50 50 49 49 48 49 48 48 47 45 45 45 44 43 42 42 41 40 39 38 36 36 35 34 33 33 32 31 30 30 29 29 29
53 54 54 54 53 52 52 53 53 53 52 52 51 51 51 50 50 50 48 47 46 46 46 45 44 44 43 42 41 40 39 38 37 36 36 35 34 33 33 32 31 31 30
53 54 54 54 54 54 53 53 53 54 54 53 53 52 52 51 51 51 50 49 48 47 47 47 46 45 45 44 43 42 41 40 39 38 38 37 37 36 35 34 33 33 32
53 53 53 54 54 55 55 54 54 54 54 54 53 52 52 53 52 52 51 51 50 50 49 49 48 47 46 46 45 44 43 42 41 41 40 39 38 38 36 36 35 34 34
53 53 54 54 54 54 54 53 53 54 54 55 54 53 53 53 53 53 53 52 52 51 51 50 49 49 48 48 47 46 45 44 44 43 42 41 40 40 39 38 37 37 36
53 52 53 54 53 53 53 53 53 54 54 54 54 53 53 53 54 55 55 54 53 52 52 52 52 51 50 49 49 49 48 47 46 45 44 43 43 42 41 41 40 39 39
53 53 52 53 53 53 54 53 54 54 55 54 54 54 54 52 53 54 55 56 55 54 54 54 54 53 52 51 51 51 51 49 49 48 47 46 45 44 43 43 43 42 41
52 53 52 52 53 54 54 54 55 54 55 56 56 55 55 54 54 54 54 55 55 55 54 54 54 54 54 53 53 52 52 51 51 50 49 48 47 47 46 45 45 45 44
51 53 54 53 53 54 54 54 54 55 54 56 56 56 56 56 54 54 55 55 55 54 54 54 54 54 54 54 54 53 53 52 52 52 51 50 49 49 49 48 48 47 47
50 51 53 54 53 52 52 52 53 52 53 53 55 56 56 56 54 54 55 55 55 55 55 54 54 55 55 55 55 54 54 53 53 53 53 52 52 51 51 50 50 49 49
49 49 51 52 52 52 52 51 52 52 52 53 54 55 56 56 55 56 57 57 57 57 56 56 56 56 56 55 55 55 54 55 54 54 55 55 55 54 54 53 52 51 51
48 47 49 51 52 52 51 52 51 51 52 53 53 54 56 57 56 56 57 57 57 57 57 57 57 57 57 57 56 56 56 56 55 55 55 56 56 56 56 55 54 54 53
47 47 48 49 49 50 51 52 51 52 53 53 53 53 54 55 54 54 55 55 56 57 57 56 57 57 57 57 56 56 56 56 56 57 56 55 56 57 57 57 56 56 55
45 45 46 47 48 49 50 51 51 50 51 52 53 53 54 54 54 55 55 56 56 57 58 57 57 57 57 57 57 56 56 56 57 57 57 57 57 58 59 58 58 57 57
44 44 45 46 47 48 48 49 50 49 49 51 53 54 55 54 54 55 56 57 58 58 58 58 58 58 58 58 58 58 58 57 58 58 59 58 58 58 59 59 58 58 57
44 44 44 45 46 46 47 47 48 49 48 50 52 53 53 54 54 55 56 56 57 57 57 58 58 58 59 60 60 59 59 58 58 58 59 59 60 58 58 58 58 58 58
43 43 44 44 45 45 46 47 48 49 48 48 50 52 53 53 52 54 54 54 55 55 56 57 57 58 59 60 61 61 60 60 58 58 59 58 60 60 58 57 58 58 58
42 42 43 43 43 44 45 47 47 47 49 49 50 51 52 52 53 53 54 54 55 55 55 56 56 57 58 60 61 62 62 61 59 58 58 58 58 59 59 58 58 58 58
39 40 41 42 42 43 44 45 45 46 48 48 49 50 51 51 52 53 53 53 54 54 54 55 55 55 56 58 59 60 60 60 60 59 59 58 57 59 59 59 59 59 59
Wind_Direction
247 247 247 246 247 247 247 248 246 245 245 245 245 245 245 245 246 245 245 245 246 247 247 248 250 252 253 254 255 257 259 260 263 265 267 269 272 275 276 278 281 284 287
248 248 248 248 247 248 248 248 248 247 246 246 246 246 247 247 247 247 245 245 247 248 248 248 250 252 253 254 255 257 258 260 262 265 267 269 270 272 276 275 278 280 282
249 249 249 249 249 249 248 248 248 248 248 247 246 247 247 248 248 247 246 246 247 248 249 249 251 252 253 254 255 257 257 259 262 265 268 269 271 272 275 274 274 276 278
250 250 249 249 249 248 248 248 249 249 248 248 247 247 247 247 247 247 247 247 248 248 249 250 252 253 253 253 255 256 257 258 261 264 267 269 270 270 271 272 273 274 275
252 251 251 250 250 250 249 249 249 249 248 248 248 247 247 247 247 247 247 247 247 248 249 250 252 253 253 253 255 255 256 258 261 264 266 268 269 269 270 270 271 273 273
252 252 252 252 251 251 250 250 250 250 249 249 248 247 247 246 246 247 247 248 248 248 249 250 250 251 252 253 254 255 255 257 261 263 264 266 267 268 269 270 270 271 271
253 254 254 253 253 252 251 250 250 250 250 250 249 248 247 247 247 246 247 247 248 248 249 250 250 251 252 252 253 254 255 257 260 261 263 265 266 267 267 268 269 269 269
254 255 254 254 254 253 252 251 250 250 249 249 249 249 248 248 246 246 246 247 248 248 249 249 251 251 251 252 253 254 256 257 259 260 262 264 264 265 266 266 268 269 269
255 255 255 254 253 254 253 251 250 249 249 249 249 249 248 247 246 246 246 246 247 249 249 249 250 251 252 252 253 254 255 256 257 258 260 262 262 263 264 265 267 268 268
255 255 255 255 254 254 253 252 250 249 248 248 249 248 248 248 246 245 246 246 247 249 249 249 250 251 251 252 253 254 254 255 255 257 259 261 261 262 263 263 265 266 267
255 255 255 255 254 253 252 251 251 249 248 247 247 246 247 247 246 246 246 247 248 248 249 250 250 250 251 252 252 253 254 254 256 257 259 260 260 261 262 263 264 265 266
256 255 255 254 253 252 251 250 249 249 247 246 246 246 246 246 246 246 246 246 247 248 249 249 250 250 251 251 251 252 253 255 256 257 258 258 259 260 261 263 264 264 266
255 254 254 253 252 251 250 249 248 248 248 247 246 245 245 246 246 247 246 246 246 247 248 249 250 251 251 250 251 252 253 254 255 256 257 257 258 259 260 262 263 264 265
256 254 253 253 252 251 250 249 247 247 246 246 246 245 245 247 247 248 248 247 246 246 248 249 250 251 251 250 250 252 253 254 254 255 256 257 257 258 260 261 263 264 264
257 255 253 252 252 251 250 249 247 247 247 246 247 247 246 247 247 247 248 248 248 247 248 249 249 250 251 251 252 252 252 253 254 255 256 257 257 258 259 260 262 263 264
258 256 254 253 253 252 250 249 247 247 247 247 246 246 246 246 247 248 249 250 250 250 248 248 249 250 250 251 251 251 251 252 252 253 254 255 257 258 259 260 261 262 263
258 256 255 253 252 251 250 249 248 247 246 247 247 246 246 246 246 247 249 250 251 251 250 249 249 250 251 252 251 251 251 252 252 253 254 255 256 258 259 260 261 261 262
259 258 255 253 252 251 250 250 249 249 248 247 248 248 247 246 247 248 249 250 252 252 251 250 249 250 251 251 251 251 252 252 252 253 253 255 256 257 259 260 260 261 262
260 259 256 253 253 252 252 251 250 250 249 248 248 249 249 248 249 249 249 251 251 252 251 251 250 249 250 250 251 251 252 252 252 253 255 256 257 258 258 259 260 260 261
259 258 256 254 253 253 252 252 252 251 251 250 250 250 249 248 248 249 250 251 251 251 251 251 251 250 250 250 251 251 252 253 254 255 256 257 258 258 258 259 260 260 261
259 257 256 255 254 254 253 253 253 253 253 252 251 249 249 248 249 250 251 251 251 251 251 252 252 251 250 250 251 252 252 253 254 255 256 258 259 258 258 258 259 260 261
259 258 257 256 256 255 253 253 253 253 253 252 251 251 250 250 250 250 250 251 252 252 252 253 253 253 252 252 251 252 253 254 255 255 257 258 259 259 258 258 259 260 260
260 259 258 257 256 255 255 254 252 253 253 252 252 252 251 251 249 250 251 251 251 252 253 253 253 254 254 253 253 253 254 255 256 256 256 258 258 259 259 258 258 259 260
260 259 258 257 256 256 256 255 254 253 253 253 253 253 252 252 251 251 250 251 252 253 254 254 255 255 255 255 254 254 254 255 256 256 256 257 258 258 258 258 258 258 259
260 259 258 257 257 256 256 255 255 255 255 255 254 254 254 252 252 252 251 250 251 252 254 254 255 256 255 255 255 255 254 255 255 256 257 258 258 258 258 258 258 258 259
260 259 258 257 257 257 256 256 256 256 256 257 256 255 254 254 252 251 251 251 252 253 254 254 255 255 256 255 254 254 255 255 255 255 256 258 258 259 258 258 258 258 258
Height
5789 5790 5792 5794 5796 5798 5799 5801 5803 5805 5807 5809 5811 5812 5814 5816 5817 5819 5821 5822 5823 5824 5825 5826 5827 5828 5829 5829 5830 5830 5831 5831 5832 5832 5832 5831 5831 5831 5830 5830 5829 5828 5828
5780 5782 5784 5785 5787 5789 5791 5793 5795 5797 5799 5801 5803 5805 5807 5809 5810 5812 5814 5815 5817 5818 5819 5821 5822 5822 5823 5824 5825 5825 5826 5827 5827 5827 5827 5827 5827 5827 5826 5826 5825 5825 5824
5770 5772 5774 5776 5778 5780 5782 5784 5786 5788 5790 5792 5794 5797 5799 5801 5803 5805 5806 5808 5810 5811 5813 5814 5815 5816 5817 5818 5819 5820 5820 5821 5822 5822 5822 5822 5822 5822 5822 5821 5821 5820 5820
5759 5762 5764 5766 5768 5770 5772 5774 5776 5779 5781 5783 5785 5788 5790 5792 5794 5796 5798 5800 5802 5804 5805 5807 5808 5809 5810 5812 5813 5813 5814 5815 5816 5816 5817 5817 5817 5817 5817 5816 5816 5815 5815
5748 5750 5753 5755 5757 5759 5761 5763 5766 5768 5770 5772 5775 5777 5780 5782 5785 5787 5789 5792 5794 5795 5797 5799 5800 5802 5803 5804 5806 5807 5808 5809 5809 5810 5811 5811 5811 5811 5811 5811 5810 5810 5810
5735 5738 5740 5742 5745 5747 5750 5752 5754 5756 5759 5761 5763 5766 5769 5772 5774 5777 5779 5782 5784 5786 5788 5790 5792 5793 5795 5797 5798 5799 5800 5802 5803 5803 5804 5804 5805 5805 5805 5805 5805 5804 5804
5722 5724 5727 5729 5731 5734 5737 5739 5741 5744 5746 5749 5751 5754 5757 5760 5763 5766 5769 5772 5774 5776 5778 5780 5782 5784 5786 5788 5790 5791 5793 5794 5795 5796 5796 5797 5798 5798 5798 5798 5798 5798 5798
5707 5709 5712 5715 5717 5720 5722 5725 5727 5730 5733 5735 5738 5741 5744 5748 5751 5754 5757 5760 5763 5765 5768 5770 5772 5774 5776 5779 5781 5782 5784 5785 5786 5787 5788 5789 5790 5790 5791 5791 5791 5791 5791
5692 5694 5697 5699 5702 5705 5708 5710 5713 5716 5719 5721 5724 5727 5731 5735 5739 5742 5745 5748 5751 5754 5757 5759 5762 5764 5766 5769 5771 5773 5774 5776 5777 5779 5780 5781 5782 5782 5783 5783 5783 5783 5783
5677 5679 5681 5683 5686 5689 5692 5695 5697 5700 5704 5707 5710 5713 5717 5720 5724 5729 5733 5736 5739 5742 5744 5747 5750 5753 5755 5758 5760 5762 5764 5766 5768 5769 5770 5771 5772 5773 5774 5775 5775 5775 5776
5662 5663 5665 5668 5670 5673 5676 5679 5682 5684 5688 5692 5695 5699 5703 5706 5709 5714 5719 5722 5726 5729 5732 5735 5738 5741 5744 5747 5749 5751 5753 5755 5757 5759 5760 5762 5763 5764 5765 5766 5766 5767 5767
5647 5648 5650 5652 5655 5657 5660 5663 5666 5669 5673 5676 5680 5684 5688 5692 5696 5700 5704 5708 5712 5716 5719 5722 5725 5728 5731 5734 5737 5740 5742 5744 5746 5748 5750 5751 5752 5754 5755 5756 5757 5757 5758
5633 5633 5635 5637 5639 5642 5645 5648 5651 5655 5658 5661 5665 5669 5673 5677 5681 5685 5689 5693 5697 5701 5704 5708 5711 5715 5718 5721 5724 5727 5729 5732 5734 5736 5738 5740 5742 5743 5744 5746 5746 5747 5748
5618 5619 5620 5622 5625 5627 5630 5633 5636 5640 5643 5646 5650 5654 5659 5663 5666 5670 5674 5678 5683 5687 5691 5695 5697 5701 5704 5708 5711 5714 5717 5719 5722 5724 5726 5728 5730 5732 5733 5734 5735 5736 5737
5604 5605 5606 5609 5611 5613 5615 5618 5621 5625 5628 5632 5636 5640 5645 5649 5653 5657 5660 5663 5668 5672 5677 5681 5683 5687 5690 5694 5697 5700 5703 5706 5709 5711 5714 5716 5717 5719 5721 5722 5724 5725 5725
5589 5591 5593 5595 5597 5599 5601 5604 5607 5611 5614 5618 5621 5626 5630 5635 5639 5642 5646 5649 5653 5657 5662 5667 5669 5673 5676 5679 5682 5686 5689 5692 5695 5697 5700 5703 5705 5706 5708 5710 5711 5712 5713
5575 5577 5578 5580 5583 5585 5587 5590 5594 5596 5600 5604 5607 5611 5616 5620 5624 5629 5632 5635 5639 5642 5647 5652 5655 5658 5661 5665 5668 5671 5675 5678 5681 5683 5686 5689 5691 5693 5695 5696 5697 5699 5700
5561 5562 5564 5566 5568 5571 5573 5577 5581 5583 5587 5590 5593 5597 5601 5605 5610 5614 5618 5621 5624 5628 5632 5637 5640 5644 5647 5651 5654 5657 5660 5663 5666 5669 5672 5674 5677 5679 5680 5682 5683 5685 5686
5547 5548 5549 5552 5554 5557 5560 5563 5567 5570 5573 5576 5580 5583 5587 5591 5595 5599 5603 5606 5610 5613 5617 5621 5626 5629 5632 5636 5639 5643 5645 5648 5651 5654 5656 5659 5661 5664 5665 5667 5668 5670 5671
5533 5534 5536 5538 5541 5544 5547 5549 5553 5556 5559 5562 5566 5569 5573 5577 5581 5585 5588 5591 5595 5599 5602 5606 5610 5614 5617 5621 5624 5628 5631 5633 5636 5639 5641 5644 5646 5648 5650 5652 5654 5655 5656
5519 5521 5523 5525 5528 5530 5533 5536 5539 5542 5545 5548 5552 5555 5559 5563 5567 5570 5574 5577 5580 5584 5587 5591 5595 5599 5602 5606 5609 5613 5616 5619 5621 5623 5626 5628 5630 5632 5633 5635 5636 5638 5640
5506 5508 5510 5512 5515 5517 5520 5522 5525 5528 5532 5535 5538 5541 5545 5549 5552 5556 5559 5563 5566 5569 5572 5575 5579 5583 5587 5590 5594 5596 5600 5603 5607 5610 5610 5612 5613 5615 5617 5618 5620 5621 5623
5494 5496 5498 5500 5502 5505 5507 5509 5512 5515 5518 5521 5524 5526 5530 5534 5537 5540 5544 5547 5550 5553 5557 5560 5564 5567 5571 5575 5578 5581 5584 5587 5590 5592 5593 5596 5597 5599 5601 5602 5603 5605 5607
5482 5484 5486 5488 5490 5492 5494 5497 5499 5502 5505 5507 5509 5512 5515 5518 5522 5525 5528 5532 5535 5538 5542 5545 5549 5552 5554 5557 5561 5564 5567 5570 5573 5574 5576 5579 5581 5583 5585 5586 5587 5589 5591
5470 5472 5474 5475 5478 5480 5482 5484 5486 5488 5491 5493 5495 5498 5500 5503 5507 5510 5513 5517 5520 5523 5525 5529 5532 5535 5537 5540 5543 5546 5549 5552 5556 5559 5559 5562 5564 5566 5569 5570 5572 5573 5574
5459 5460 5462 5464 5466 5468 5469 5471 5473 5476 5478 5481 5482 5484 5486 5489 5491 5494 5497 5500 5504 5507 5509 5512 5515 5518 5520 5523 5525 5528 5532 5535 5539 5543 5544 5545 5547 5548 5552 5555 5555 5556 5558